Terminal Aerodrome Forecast
Issued by NWS Bismarck, ND

Home | Current Version | Previous Version | Text Only | Print | Product List | Glossary On
Versions: 1 2 3 4 5 6 7 8 9 10 11 12 13 14 15 16 17 18
000
FTUS43 KBIS 230613 AAA
TAFBIS
TAF AMD
KBIS 230613Z 2306/2406 29020G32KT P6SM -RA BKN070 WS020/29045KT
     FM230900 30024G35KT P6SM BKN070
     FM231300 31023G32KT P6SM BKN050 BKN080
     FM231700 32027G36KT P6SM BKN070
     FM240100 33017G23KT P6SM SKC WS020/34040KT=

USA.gov is the U.S. government's official web portal to all federal, state and local government web resources and services.